Theta_e
329 329 328 328 328 327 325 326 326 325 324 324 324 325 324 325 326 325 325 326 327 328 330 332 331 331 332 330 329 330 330 331 332 331 332 332 332 332 331 332 332 332 332 332 333 335 335 334 334 334 334 333 335 338 337 335 334 334 335 335 337 335
329 329 329 328 328 327 327 327 327 326 325 325 325 325 324 323 324 325 325 326 327 327 327 330 330 331 332 330 329 328 329 330 330 330 331 331 330 331 331 331 331 331 332 333 335 338 337 335 334 333 333 334 337 338 336 333 333 334 335 335 335 334
330 331 329 328 327 326 327 327 326 326 324 324 324 324 324 323 323 324 325 325 326 326 326 327 328 329 329 329 329 328 328 329 329 329 331 330 329 330 330 331 331 332 333 335 336 338 338 338 336 335 336 337 337 337 335 333 333 334 335 335 335 333
331 331 329 327 327 326 327 326 326 326 324 324 323 323 323 323 323 324 324 324 324 325 326 326 326 327 327 328 328 329 329 331 330 330 331 331 331 331 333 334 334 334 336 336 337 337 338 338 337 338 337 337 337 337 336 334 333 334 335 338 336 334
331 331 329 327 327 327 327 326 326 326 325 324 323 322 323 322 322 323 323 323 323 324 323 324 326 326 326 326 327 328 329 331 331 331 331 332 332 333 334 336 335 336 337 337 337 337 338 337 337 337 337 337 336 337 336 336 335 335 336 338 336 334
330 331 330 328 327 327 327 326 326 326 325 324 323 323 322 322 322 323 323 323 322 321 321 322 324 325 325 326 327 327 328 329 330 330 331 331 332 333 333 334 335 335 336 337 337 337 337 337 337 336 336 336 336 336 337 337 336 336 336 337 336 335
330 331 331 329 327 327 327 327 327 326 326 325 324 323 322 323 323 324 324 324 322 321 321 321 322 324 325 325 326 326 327 328 329 329 330 331 332 332 333 333 334 334 336 336 337 337 337 336 336 336 336 336 337 336 336 337 337 336 337 337 336 334
331 331 330 329 327 327 327 327 327 326 326 325 324 324 323 323 323 324 324 324 323 321 321 321 321 322 324 324 325 326 327 327 328 328 328 329 330 332 333 333 333 333 335 337 337 337 337 336 336 337 336 336 337 337 337 337 338 337 337 337 336 334
331 331 330 329 327 327 328 327 327 327 327 325 325 324 324 324 323 323 324 323 323 322 320 320 321 321 323 324 324 325 326 327 327 327 328 328 329 331 332 332 332 332 333 335 337 337 338 337 336 336 336 337 337 337 338 337 337 337 337 337 337 335
331 331 331 330 329 329 329 328 328 327 327 326 325 325 324 324 324 324 324 324 323 321 320 320 320 321 322 323 323 324 325 326 326 327 327 327 328 330 330 331 331 331 332 334 336 337 337 337 337 337 337 337 337 337 338 337 337 337 337 337 337 335
332 332 332 331 330 330 329 329 329 328 327 326 325 326 325 324 325 325 325 324 323 321 319 320 320 320 321 322 322 323 324 325 325 326 326 327 327 329 330 330 330 332 332 333 335 337 337 337 336 337 337 337 337 337 337 337 337 336 336 336 336 335
332 333 333 331 331 330 330 330 329 328 328 328 326 326 326 325 325 326 325 324 323 321 320 320 321 321 321 321 322 322 323 324 324 325 326 327 327 328 329 329 330 331 332 333 335 337 337 336 336 336 337 337 336 336 336 336 336 336 336 336 337 337
332 334 334 333 332 331 331 331 330 330 330 329 327 326 326 326 326 326 326 325 323 321 320 320 321 320 320 320 321 322 322 323 324 325 326 327 327 328 329 329 330 330 330 332 335 337 337 336 336 336 336 336 336 335 335 335 335 335 336 337 336 336
333 334 334 333 333 333 333 333 331 331 332 329 327 327 327 326 326 326 325 325 323 321 321 320 320 320 320 320 321 322 322 323 324 325 325 327 327 327 328 328 328 328 329 330 333 337 337 337 337 336 336 336 336 336 335 335 335 335 336 336 336 336
332 333 334 334 334 334 334 334 332 331 332 330 328 328 327 326 326 326 325 325 324 322 321 321 321 321 322 321 321 322 322 323 323 325 325 327 327 326 327 327 327 328 328 329 332 336 337 337 336 336 336 336 336 336 335 336 335 335 336 336 336 336
332 334 334 334 335 335 335 334 333 332 332 331 328 328 328 326 327 326 325 325 325 323 322 322 321 322 323 322 321 322 322 322 323 325 326 327 326 327 327 327 326 327 328 329 331 334 337 337 336 337 336 336 336 336 336 336 336 336 336 336 336 336
332 334 334 334 335 334 334 335 333 332 332 331 330 328 328 327 327 327 326 326 325 324 324 323 322 323 323 321 321 321 321 323 324 325 326 326 326 326 327 327 326 327 329 329 329 333 336 336 336 337 337 336 336 336 336 335 335 335 336 336 336 336
332 333 333 334 335 334 334 334 332 332 333 332 331 330 328 328 328 327 327 326 326 325 325 324 323 323 323 322 321 321 321 323 325 325 326 326 326 326 326 326 327 329 330 331 330 332 335 336 336 337 336 336 336 334 333 333 332 333 333 333 334 334
333 333 333 334 335 333 332 332 331 332 332 331 331 331 329 329 328 328 327 327 326 326 325 325 324 324 323 322 321 321 322 323 324 325 325 326 326 325 326 326 327 329 330 331 331 332 335 336 336 336 336 336 335 334 332 332 331 331 330 330 331 332
334 334 334 334 333 331 330 331 331 331 332 331 331 332 331 330 328 329 328 328 327 326 326 325 325 324 324 323 322 322 323 323 324 325 325 325 325 325 326 325 326 328 329 330 330 331 334 336 336 336 336 336 336 335 334 333 332 332 331 330 330 330
334 334 334 333 332 332 331 331 331 332 331 331 330 331 331 331 330 330 329 329 328 327 326 326 326 326 324 324 323 322 323 323 323 324 324 324 324 324 324 326 325 326 327 329 330 330 332 335 335 336 335 335 335 334 333 333 333 333 332 331 330 330
334 334 334 333 334 334 333 332 332 332 331 330 331 331 331 331 331 331 330 329 329 328 327 326 326 326 325 324 324 323 323 323 323 323 323 323 322 323 323 324 325 325 326 327 328 329 330 332 333 333 332 331 332 332 331 330 330 332 331 330 329 329
334 334 334 333 334 333 334 334 334 333 333 331 332 332 332 332 332 332 331 330 330 329 328 327 326 325 326 325 325 325 324 323 324 324 323 323 323 323 322 322 323 325 326 326 326 327 328 330 330 330 331 329 329 330 330 329 330 330 330 329 329 329
334 334 334 333 334 334 334 335 335 334 334 332 332 332 332 332 332 331 331 331 331 330 329 328 326 325 326 326 325 325 324 324 325 325 324 324 324 323 323 322 322 323 326 325 325 325 326 327 328 329 329 329 328 328 328 328 329 329 329 329 329 328
334 334 333 334 335 334 334 334 334 334 334 333 332 332 331 331 331 331 332 331 332 331 330 330 328 326 326 327 326 326 325 325 325 325 324 324 325 324 323 323 322 322 325 326 325 324 325 326 326 327 327 328 329 328 327 327 327 328 328 327 327 327
334 334 334 335 335 334 334 334 334 333 333 333 332 332 332 332 332 332 332 333 332 332 332 331 330 328 327 327 327 326 326 326 326 325 325 324 324 325 324 323 323 323 324 325 325 325 325 326 325 325 325 326 326 326 326 326 325 326 327 326 326 325
334 335 334 335 335 335 334 334 334 334 333 333 332 333 333 333 333 333 333 333 332 333 332 332 331 330 329 328 328 328 327 326 326 325 326 325 324 325 324 324 324 325 324 325 325 324 325 325 324 324 324 324 324 324 324 323 323 323 324 325 325 324
335 335 334 335 335 335 334 335 335 335 334 333 333 334 334 334 334 333 334 334 333 333 333 333 332 331 330 329 329 329 328 327 327 326 326 326 326 325 326 325 326 326 325 325 326 326 325 324 324 324 324 324 324 324 323 323 323 323 323 323 324 324
336 335 335 336 335 335 335 335 335 335 334 334 334 334 334 333 334 334 334 334 334 334 334 334 333 332 332 331 331 330 330 329 328 327 327 327 327 327 326 327 326 326 327 327 327 326 325 325 325 325 325 325 325 325 324 324 324 324 324 324 325 325
336 335 335 336 335 335 336 335 335 335 334 334 334 334 334 334 334 334 334 334 334 334 334 334 334 334 333 332 332 332 331 331 330 329 329 329 329 328 328 327 327 327 327 327 327 326 326 326 326 325 325 325 325 324 324 324 325 325 325 326 325 325
336 335 336 336 336 336 336 335 335 336 335 334 334 334 335 335 334 335 335 334 334 334 334 334 335 335 334 334 334 333 333 332 332 332 331 331 331 330 329 328 328 327 327 328 327 327 327 327 327 326 326 325 325 325 325 324 325 325 325 325 324 325
336 336 336 336 336 336 336 336 336 336 336 336 336 335 335 335 334 334 335 335 335 334 334 334 335 335 335 335 335 334 334 334 333 334 333 333 332 331 330 330 330 329 329 329 328 329 329 328 328 327 327 327 326 325 325 325 324 324 324 325 324 324
337 337 336 336 337 336 336 336 337 337 336 337 337 336 336 335 335 334 335 335 335 335 334 335 335 335 334 335 335 335 335 336 335 335 334 334 333 333 332 332 331 331 330 330 330 329 329 329 329 328 328 327 327 327 326 325 325 325 325 325 325 324
337 337 337 337 337 336 337 337 337 338 337 337 337 337 336 336 336 335 335 335 335 335 335 335 335 335 335 335 335 335 335 336 336 336 336 335 335 335 335 333 333 333 332 331 331 331 330 329 329 329 328 328 328 328 327 326 326 325 325 325 325 325
336 337 337 337 337 337 337 337 338 338 337 337 336 336 336 336 336 336 336 336 335 335 336 336 335 335 335 336 336 336 336 336 336 336 335 335 336 335 336 335 334 334 334 333 333 333 332 331 331 330 329 329 328 328 328 327 327 326 326 326 326 325
337 336 337 337 337 338 338 338 339 338 336 336 337 336 336 336 336 336 336 337 336 336 336 336 336 336 336 336 336 337 337 337 337 337 337 336 336 336 336 335 335 335 334 334 333 334 334 334 334 334 332 331 330 329 328 328 328 327 327 326 326 325
336 336 337 338 338 337 338 338 339 338 337 336 336 336 336 336 337 337 337 337 337 337 337 337 336 336 336 337 338 338 338 339 339 339 338 338 338 337 336 336 335 335 334 333 333 333 333 333 334 333 333 333 333 332 331 330 330 330 329 328 328 326
Wind_Speed
5 5 6 6 6 6 8 10 10 11 12 13 14 14 13 13 13 13 14 13 11 9 8 8 7 7 8 9 9 9 10 10 8 7 8 8 8 7 7 7 6 6 4 3 4 4 4 4 3 3 3 3 4 5 5 5 5 5 6 6 4 4
5 5 5 5 5 6 8 9 10 10 11 12 14 14 13 13 13 13 13 11 11 10 9 9 8 7 6 7 7 6 8 8 7 7 7 7 8 7 7 7 6 5 6 5 5 4 3 5 4 4 4 5 4 4 6 5 4 5 5 6 4 4
5 5 5 5 5 6 7 9 10 10 11 12 14 14 14 13 13 13 13 12 11 11 10 9 9 8 6 6 6 5 6 6 7 7 7 8 9 7 7 8 7 7 8 7 5 3 3 3 4 5 5 4 4 5 6 4 5 6 5 6 4 4
5 4 5 5 5 6 7 9 10 10 12 13 13 14 14 14 14 13 12 12 11 10 9 9 9 7 5 5 6 6 6 6 7 9 8 8 7 7 7 7 8 8 8 6 5 4 4 3 3 4 4 4 4 6 5 3 5 5 5 6 5 5
5 5 5 5 5 6 7 9 10 10 12 13 13 13 14 14 15 14 13 12 11 10 8 7 7 7 6 6 6 6 7 7 6 8 7 6 5 6 6 6 8 8 7 6 7 6 5 4 4 4 4 5 5 5 5 4 4 5 6 6 5 7
4 4 4 4 5 6 7 9 10 11 11 12 13 13 13 14 15 15 14 13 11 10 8 7 6 6 6 6 7 7 7 7 6 7 7 6 6 6 6 6 7 8 8 7 7 7 6 6 5 5 6 6 5 5 5 5 5 5 6 6 7 8
4 3 4 4 5 6 7 9 10 10 11 12 12 12 14 14 14 14 14 13 12 12 10 7 5 5 6 6 7 8 8 8 7 8 7 7 7 6 7 7 7 8 8 8 7 7 6 7 6 6 6 6 6 6 6 6 6 5 7 7 7 7
3 3 4 5 5 6 8 9 10 10 10 11 11 12 13 13 13 14 14 13 13 12 10 8 6 4 5 5 6 7 8 8 8 9 8 8 8 7 7 7 8 8 8 7 7 6 6 7 7 6 6 6 6 6 6 6 6 6 6 7 7 7
3 3 4 5 5 6 7 9 10 10 9 9 10 11 12 13 15 15 15 14 14 13 11 10 8 6 5 4 5 7 7 8 9 9 9 9 9 8 8 8 8 8 7 7 6 6 6 7 7 7 7 6 6 7 7 7 6 6 6 7 8 8
3 4 5 5 5 6 6 8 9 9 8 8 9 10 12 13 15 16 15 14 14 13 12 12 10 7 6 5 4 5 6 7 8 9 9 9 9 8 8 8 8 8 7 6 6 6 6 7 7 7 7 7 7 7 7 7 6 6 6 6 7 8
3 4 4 5 5 5 6 7 8 8 8 8 8 9 11 12 14 15 15 14 14 13 13 13 11 9 7 6 5 5 6 7 8 8 9 9 8 7 7 8 8 8 7 7 6 5 6 7 7 8 8 7 7 7 7 7 6 6 6 6 6 8
3 4 4 4 4 4 5 6 7 8 8 8 8 8 9 11 13 14 14 14 14 13 13 13 12 10 8 7 6 5 6 6 7 8 8 9 8 7 7 7 7 7 7 6 6 6 6 7 8 8 8 8 7 8 8 7 7 7 7 7 6 7
3 4 3 4 4 5 5 6 6 7 7 8 9 9 9 10 12 13 13 14 14 14 13 13 12 10 9 8 7 6 6 6 6 7 8 8 8 7 7 7 7 7 7 6 6 6 6 7 8 8 8 8 8 8 8 8 8 8 7 7 7 7
3 3 3 4 4 5 5 5 6 6 7 7 8 9 10 10 11 13 14 14 14 14 14 13 12 11 9 8 7 7 6 6 7 7 7 7 7 8 8 8 7 7 7 6 6 6 7 8 8 9 9 9 9 9 9 9 9 9 8 8 7 7
3 3 3 4 4 4 4 4 5 6 6 7 8 9 9 10 11 13 14 14 13 14 14 14 13 11 9 8 7 7 7 7 8 7 7 7 7 8 9 9 9 7 7 7 6 6 8 9 9 9 9 9 9 9 9 10 10 9 9 8 7 7
4 4 4 3 3 3 3 3 4 5 6 6 8 9 9 10 11 12 14 13 13 14 14 14 14 12 10 9 8 7 7 7 7 7 7 8 8 9 9 10 10 9 7 6 6 7 8 9 9 9 9 9 8 8 9 9 9 9 9 8 8 7
4 4 3 3 2 2 2 3 4 5 5 6 8 9 9 9 10 11 13 13 13 13 13 14 14 13 12 11 10 8 8 7 7 7 7 8 8 9 9 9 10 9 8 6 6 8 8 8 8 8 9 8 8 8 9 9 8 8 8 8 8 8
3 3 3 2 1 2 2 2 4 4 5 6 7 8 8 9 10 10 11 10 11 12 12 12 13 13 13 12 11 10 9 8 7 7 7 7 8 9 10 10 10 10 8 7 7 8 8 8 7 8 8 9 9 9 9 9 9 8 9 9 9 8
3 3 2 1 1 1 2 2 4 4 5 6 7 8 8 9 10 10 9 8 10 11 11 12 12 13 14 14 13 11 10 9 8 8 8 8 8 9 10 10 11 10 9 8 7 7 8 7 7 7 8 8 9 9 9 9 9 9 9 10 9 9
4 3 2 1 1 1 2 3 4 4 5 6 7 7 8 9 10 10 9 7 8 9 10 12 12 12 13 14 14 12 10 10 9 9 9 9 9 9 9 9 10 10 9 8 8 8 7 6 5 6 6 7 8 8 9 8 8 8 9 9 9 9
4 3 2 1 2 2 3 3 4 5 6 6 6 7 7 8 9 10 9 8 7 7 8 9 11 11 12 13 13 13 11 10 10 9 9 9 9 9 8 8 7 8 9 9 10 9 7 4 3 4 5 6 7 7 7 8 8 8 8 8 9 9
4 4 2 2 2 2 3 4 5 6 6 6 7 7 7 8 8 8 8 8 6 6 7 8 9 11 10 11 12 12 12 11 11 10 9 9 9 9 9 8 6 6 7 9 10 11 9 5 2 2 2 4 5 5 6 7 7 7 7 8 8 8
4 4 3 2 2 3 3 4 5 5 5 6 6 6 7 7 8 8 7 7 7 6 6 7 9 10 9 9 10 11 11 12 11 11 11 11 11 11 11 10 8 6 5 7 8 10 11 8 5 3 1 1 2 2 4 5 6 6 7 7 7 8
5 4 4 3 3 2 3 3 3 4 4 5 6 6 6 7 7 8 8 7 7 6 6 6 7 9 9 8 8 9 9 10 10 11 11 11 12 13 12 12 10 9 7 6 7 9 11 11 11 7 3 0 0 1 2 4 3 4 4 5 6 7
6 5 4 4 3 3 2 3 3 3 4 4 5 6 6 7 7 8 8 7 7 6 6 6 6 7 7 7 6 7 9 9 9 11 11 11 12 12 12 12 12 11 10 8 7 7 8 11 12 11 8 4 1 1 3 4 2 2 2 3 5 6
6 5 5 5 4 3 3 3 3 3 4 4 5 6 6 6 7 7 7 6 6 6 6 6 6 5 5 6 5 6 8 8 9 11 11 11 11 11 11 12 12 11 11 9 8 7 7 8 9 10 10 8 6 5 4 5 4 1 2 2 3 5
6 6 5 5 5 3 3 3 3 4 4 4 5 6 5 5 5 5 5 5 5 6 6 6 6 6 5 4 4 5 6 7 9 10 9 9 11 11 10 11 11 11 10 10 9 9 8 7 7 8 8 7 7 6 6 5 4 3 1 2 3 4
7 6 6 6 5 4 3 3 3 4 4 4 5 5 4 4 4 4 5 4 4 5 5 5 5 6 5 5 4 5 5 6 8 9 8 8 8 9 9 8 8 9 9 9 9 9 9 8 7 7 6 6 5 5 5 6 5 5 4 2 3 4
7 7 7 6 6 5 4 3 3 3 4 4 4 4 3 4 4 4 5 5 4 4 4 4 5 5 5 5 4 4 4 5 6 7 7 7 6 6 6 6 7 7 7 7 7 8 8 8 8 7 6 6 5 4 4 5 6 5 4 3 3 4
8 7 7 7 6 5 5 4 3 3 3 3 3 3 3 4 4 4 5 5 4 4 4 4 4 4 4 4 4 3 3 4 4 4 4 4 3 4 4 4 4 4 4 5 5 5 6 6 6 7 7 7 7 6 5 5 6 6 5 4 5 4
8 8 8 8 7 6 5 4 3 2 2 3 3 3 3 4 4 4 5 5 4 4 4 4 4 4 4 4 4 3 3 3 3 2 2 2 2 2 2 2 2 2 2 3 3 3 4 5 5 6 6 6 7 7 7 6 6 7 7 5 6 5
9 9 8 8 8 7 6 4 3 2 1 2 2 2 3 4 4 4 5 5 5 5 5 5 4 5 4 4 4 3 3 3 3 3 3 3 2 2 2 2 2 2 2 2 2 2 3 4 4 5 5 5 5 5 6 5 5 7 7 7 7 5
10 10 9 9 8 7 6 5 4 3 2 2 2 3 3 4 4 4 4 4 5 5 5 5 4 4 4 3 3 3 3 3 3 4 4 4 3 3 3 3 3 3 3 4 3 3 4 4 4 4 4 4 4 4 5 4 3 5 6 7 7 6
11 11 10 9 9 7 6 5 4 4 3 3 3 3 4 4 4 3 3 3 3 3 3 3 3 3 3 3 3 3 4 4 4 5 5 5 5 5 5 5 5 5 5 5 5 5 5 6 6 6 6 6 6 5 5 5 4 5 5 7 8 7
11 11 11 10 9 8 7 6 5 4 4 4 4 4 4 3 3 3 2 2 2 2 2 2 2 2 2 3 3 3 4 4 5 6 6 7 7 7 7 7 7 7 7 7 7 7 7 7 7 7 7 8 8 7 7 7 6 6 7 6 7 7
12 12 11 10 9 8 7 6 5 5 5 5 5 5 5 3 3 2 1 1 1 1 0 0 0 1 2 3 3 4 4 5 5 6 7 8 8 8 9 9 9 10 10 9 9 9 9 9 8 9 9 9 9 9 8 8 7 8 8 8 8 7
12 12 12 11 10 9 8 7 7 7 7 7 7 6 5 4 3 2 1 1 1 1 1 1 1 2 2 3 4 4 4 5 5 6 7 7 7 8 8 8 9 10 10 10 10 10 9 9 9 9 9 8 9 9 9 8 7 7 8 9 8 8
Wind_Direction
63 65 63 64 66 54 39 35 38 43 36 29 29 29 30 34 37 34 33 30 31 37 42 47 39 36 26 18 24 27 24 24 26 27 31 30 25 29 33 34 29 22 15 21 52 49 49 51 58 58 51 53 45 47 47 47 58 58 74 82 66 59
69 65 61 66 68 51 37 34 38 43 36 32 32 31 32 35 38 35 35 33 31 32 37 45 40 41 39 26 24 26 23 22 39 46 42 35 26 31 31 27 27 28 31 40 55 48 39 40 43 49 51 58 51 51 57 58 75 79 83 87 77 74
69 63 56 62 66 48 35 34 38 42 36 34 33 35 37 36 37 35 35 33 31 29 32 38 33 34 42 36 32 31 27 32 45 37 41 45 32 33 34 32 38 39 35 34 43 40 42 48 40 42 43 51 57 62 65 58 71 80 73 64 57 67
67 59 52 56 60 46 35 35 39 41 37 35 34 37 39 39 36 33 32 29 27 25 25 30 25 24 30 30 30 31 31 36 43 30 34 47 35 31 33 29 31 32 29 24 29 29 38 55 49 50 50 55 64 70 75 65 64 75 69 60 55 58
66 55 48 52 54 46 36 36 41 41 37 35 35 35 36 37 35 30 28 23 21 17 14 20 20 18 21 27 26 29 36 36 43 33 27 39 35 33 34 26 23 26 25 23 29 32 39 47 49 56 59 60 69 78 84 82 74 76 70 62 63 65
64 52 44 49 51 49 39 35 41 39 36 36 34 34 32 31 31 28 24 20 18 14 9 8 13 17 15 21 23 23 35 37 40 37 27 33 34 30 35 33 28 28 25 25 32 38 44 46 50 57 61 65 72 82 88 91 89 81 73 63 64 73
66 51 41 43 47 50 41 37 41 39 36 35 33 33 31 29 29 25 21 19 16 13 11 8 11 21 16 17 21 21 28 31 35 38 31 32 33 30 34 35 34 33 28 29 36 42 47 47 50 55 60 66 71 80 86 91 92 78 73 67 63 75
68 54 41 40 46 48 42 40 41 40 40 37 34 35 34 31 29 25 21 19 17 15 18 23 25 27 25 23 22 20 26 30 31 32 29 29 32 32 34 34 35 35 29 29 37 45 48 49 50 52 56 61 69 80 85 88 89 78 72 68 63 69
63 49 40 37 43 46 41 42 42 42 44 42 40 38 36 34 30 26 23 21 21 23 28 35 36 36 36 34 29 25 28 32 32 29 25 25 27 27 30 31 29 29 28 28 37 44 47 49 48 51 56 61 70 77 83 86 86 81 74 69 66 66
64 44 38 35 41 44 37 42 44 43 47 47 45 42 37 36 31 27 26 24 26 32 37 38 37 39 40 38 39 35 32 32 31 29 26 24 22 22 26 28 25 24 23 26 38 47 50 52 50 50 53 59 69 75 80 85 84 81 75 70 66 62
70 50 44 40 43 44 37 40 43 45 50 46 44 45 38 35 33 29 29 29 31 37 41 39 37 39 43 43 44 42 37 30 27 27 27 26 22 20 22 24 23 21 19 22 37 51 55 56 54 52 53 56 65 72 77 81 81 80 75 76 69 60
81 65 54 49 49 46 38 38 43 47 51 44 41 45 40 37 35 33 34 33 35 40 41 39 37 38 44 47 46 42 39 31 26 26 22 22 23 22 23 23 20 18 17 23 38 52 57 58 59 55 54 56 61 68 74 79 80 80 77 78 77 69
93 79 67 57 51 46 38 35 40 45 48 43 42 45 44 41 38 39 41 38 38 41 41 39 38 40 45 48 47 43 39 32 25 24 20 20 26 27 27 23 19 20 20 26 42 54 60 61 63 63 59 59 60 62 68 75 77 77 78 76 75 72
110 98 84 69 54 43 34 28 32 41 45 42 43 47 48 46 43 43 44 42 41 42 42 40 38 38 41 44 45 40 35 31 25 25 27 25 30 32 31 26 20 21 23 27 41 54 64 64 63 66 66 65 64 64 67 71 74 75 76 74 72 69
123 115 99 82 62 44 29 23 29 40 45 45 47 50 51 49 46 45 45 44 42 42 42 40 37 34 35 35 35 36 32 29 26 32 40 37 36 36 33 28 20 18 26 33 41 56 69 68 65 67 68 70 69 70 71 72 75 77 78 77 76 72
130 122 108 88 69 47 29 27 34 45 51 49 50 51 53 51 50 49 46 45 44 42 41 40 38 35 32 32 31 36 35 31 31 41 49 45 44 40 34 29 23 17 24 37 47 61 72 71 70 70 69 71 71 71 73 73 74 76 79 80 78 74
132 125 115 94 75 52 39 42 46 52 55 50 50 52 54 53 53 53 49 46 45 42 39 39 38 34 33 35 36 41 42 39 39 48 53 50 47 41 34 30 27 22 21 34 54 63 70 72 72 70 67 66 65 67 68 69 69 71 74 74 72 72
135 132 126 103 79 54 48 56 58 58 58 54 54 54 55 57 57 58 54 49 46 44 40 37 36 34 35 38 42 48 50 48 48 54 54 50 46 41 37 33 31 29 23 29 48 59 65 70 71 69 65 60 59 61 62 63 64 65 67 66 63 62
145 143 145 127 97 80 76 72 67 67 65 60 59 58 56 58 59 61 60 53 50 46 41 39 36 35 37 40 47 53 56 54 54 56 51 46 44 40 39 36 35 35 32 31 39 51 59 67 76 74 68 62 59 60 59 59 59 60 62 63 62 59
152 154 164 149 108 85 83 79 73 68 64 60 61 61 56 55 57 61 62 58 54 49 44 43 40 37 39 42 48 54 56 56 57 57 52 45 41 39 37 36 38 39 40 39 37 41 47 54 72 81 82 75 67 63 61 57 54 53 53 54 55 56
153 158 170 139 97 73 65 66 65 60 59 59 60 61 59 55 55 60 61 60 60 54 48 45 41 39 41 44 49 53 53 53 55 54 52 45 40 38 34 34 40 45 47 46 38 34 31 31 62 86 94 96 88 75 65 57 50 47 46 47 47 46
154 155 161 134 98 77 61 53 54 53 53 58 58 58 58 56 57 61 61 62 66 59 53 50 46 43 43 45 48 50 51 51 52 51 49 47 42 40 37 34 39 50 56 53 43 34 26 22 59 77 82 109 108 96 85 69 51 43 40 40 41 40
160 155 152 145 112 85 72 59 53 53 53 60 61 57 58 59 61 64 63 64 67 66 59 55 53 51 49 47 46 50 51 50 50 49 48 47 44 42 40 39 38 42 53 62 54 38 29 23 22 20 347 104 80 101 112 83 55 47 39 36 37 33
168 160 152 152 132 105 91 75 64 64 68 70 68 66 68 67 65 64 63 61 63 65 63 60 59 58 55 49 46 48 50 46 44 47 47 44 41 40 39 40 41 39 35 49 57 44 35 29 22 12 347 43 16 283 80 57 37 55 45 36 43 37
173 165 155 156 149 135 122 102 94 96 94 87 78 72 67 63 59 59 57 55 56 58 60 64 64 60 58 53 47 47 50 47 44 47 48 45 43 40 39 38 40 42 36 33 45 49 43 37 32 25 19 20 343 335 38 8 330 90 80 36 35 32
175 171 162 162 162 150 137 117 105 103 94 82 75 67 56 51 50 50 50 50 53 54 56 61 65 62 58 54 46 45 51 51 47 50 49 48 48 43 41 41 40 43 41 33 37 45 45 43 41 38 37 37 30 22 14 342 322 26 121 101 32 13
178 175 167 165 169 159 140 122 107 99 84 72 71 68 59 52 47 45 47 48 50 52 51 54 61 62 60 55 46 43 49 51 50 51 48 48 50 48 46 44 40 41 41 38 40 43 41 41 44 43 43 45 42 35 21 7 354 344 351 98 54 23
179 175 169 168 171 165 146 132 121 110 92 75 69 68 64 58 51 42 42 47 47 50 48 46 53 58 61 59 53 48 48 52 54 53 51 48 47 46 44 40 37 38 39 38 39 41 40 39 41 42 41 42 44 47 42 34 23 1 346 359 44 35
181 176 172 173 174 168 155 143 133 117 100 85 71 66 64 61 57 46 46 52 51 52 49 46 48 51 57 57 53 53 49 51 55 57 54 47 39 37 35 33 34 34 35 36 34 37 40 39 40 38 35 36 35 37 53 47 31 21 11 358 12 22
182 176 173 177 178 172 166 161 145 120 96 84 69 61 66 69 67 59 59 61 58 58 54 53 54 51 55 57 54 55 56 55 57 59 53 39 31 31 29 26 26 22 22 29 32 33 35 34 36 34 29 32 34 32 37 37 27 20 18 8 5 9
182 177 174 178 181 176 174 170 153 136 102 80 66 67 78 81 80 75 73 73 72 71 66 65 68 65 64 62 55 51 52 55 50 46 40 27 23 22 17 5 354 353 355 2 8 16 22 23 24 28 29 28 30 33 29 24 21 15 13 10 3 2
179 178 177 180 183 179 176 173 163 162 139 93 85 98 99 93 92 89 86 85 83 84 82 80 81 78 73 61 53 47 38 36 29 22 21 17 12 358 346 328 315 309 307 312 315 329 353 2 3 6 14 16 13 16 18 16 9 8 9 2 349 348
179 180 182 183 186 184 181 180 175 177 169 139 134 128 120 110 104 98 93 91 89 88 87 85 82 80 72 52 43 35 18 11 4 356 351 349 346 332 317 314 314 308 306 309 301 297 304 310 313 318 332 339 330 335 350 349 334 345 355 345 337 346
181 182 186 187 189 188 186 185 182 184 181 166 155 144 136 122 115 110 101 96 91 90 89 85 80 66 47 23 13 5 350 343 337 332 329 327 326 319 305 306 315 311 311 315 304 294 298 300 297 295 301 303 303 311 313 309 308 314 324 329 332 341
184 182 187 190 191 190 189 189 187 188 183 173 163 153 147 137 130 129 116 107 101 97 91 79 70 35 1 343 334 329 323 321 320 318 317 315 313 312 304 301 307 306 305 309 301 294 295 294 293 294 296 294 294 297 295 297 298 293 299 306 312 321
188 184 186 192 193 193 194 192 191 191 184 177 173 164 158 159 160 157 151 141 130 121 111 58 348 311 311 308 303 304 305 308 309 310 314 313 309 311 310 306 310 311 310 312 308 302 299 296 297 298 298 295 292 294 296 294 287 282 288 291 289 294
189 187 189 193 195 196 197 197 197 194 188 183 182 179 176 178 179 182 199 198 189 210 240 266 277 288 298 301 300 304 312 317 321 325 328 330 327 325 325 322 323 325 323 323 321 316 312 308 310 310 307 306 303 304 310 309 302 296 294 292 291 288